Simultaneous Nadir Overpasses (SNOs) Predictions

Prediction of SNOs between AQUA and METOP-C Satellite Orbit:

Table of predicted SNOs for the next 14.0 days since TLE Epoch: 4/20/2024
Index Date (AQUA) Time (AQUA) Lat,Lon (AQUA) SZA (AQUA ) Date (METOP-C) Time (METOP-C) Lat,Lon (METOP-C) SZA (METOP-C ) Distance(km) Time Diff (sec)
1 04/20/2024 04:43:09 -75.24, -72.71 116.53 04/20/2024 04:42:15 -75.26, -72.70 116.50 3.09 54
2 04/20/2024 05:32:34 75.33, 94.69 63.56 04/20/2024 05:32:54 75.33, 94.83 63.56 3.83 20
3 04/22/2024 20:54:17 -75.27, 44.47 117.40 04/22/2024 20:53:56 -75.26, 44.36 117.41 3.33 21
4 04/22/2024 21:43:41 75.31,-148.00 62.64 04/22/2024 21:44:35 75.32,-148.11 62.65 3.22 54
5 04/25/2024 12:15:59 75.23, -5.82 61.71 04/25/2024 12:14:56 75.26, -5.87 61.73 3.08 63
6 04/25/2024 13:05:22 -75.30, 161.66 118.25 04/25/2024 13:05:36 -75.32, 161.63 118.22 2.30 14
7 04/28/2024 04:27:00 75.27, 111.38 60.89 04/28/2024 04:26:36 75.30, 111.34 60.92 3.54 24
8 04/28/2024 05:16:23 -75.33, -81.14 119.06 04/28/2024 05:17:16 -75.36, -81.16 119.04 2.62 53
9 04/30/2024 19:48:34 -75.30, 60.96 119.90 04/30/2024 19:47:36 -75.29, 61.08 119.90 3.54 58
10 04/30/2024 20:37:57 75.31,-131.41 60.10 04/30/2024 20:38:16 75.31,-131.53 60.11 3.28 19
11 05/03/2024 11:09:52 74.71, 12.19 58.73 05/03/2024 11:08:47 74.65, 9.02 58.70 93.21 65
12 05/03/2024 11:59:26 -75.33, 178.19 120.66 05/03/2024 11:59:14 -75.33, 178.29 120.65 3.04 12



Historial Predications of SNOs between AQUA and METOP-C
